Location: Newark
(50.4348°N, 30.5552°E)
Time: 09:53:16
(UTC+00:00)

Explorer 7 - Visible Passes

Search period start: 20 January 2020 00:00
Search period end: 30 January 2020 00:00
Orbit: 485 x 679 km, 50.3° (Epoch: 20 January)

Date Brightness Start Highest point End Pass type
(mag) Time Alt. Az. Time Alt. Az. Time Alt. Az.
20 Jan 7.2 03:17:53 52° S 03:17:53 52° S 03:21:28 10° ESE visible
20 Jan 8.7 04:54:32 10° W 04:57:23 19° SW 05:00:21 10° S visible
21 Jan 7.5 03:22:43 41° S 03:22:43 41° S 03:26:11 10° SE visible
21 Jan 9.0 05:00:18 10° WSW 05:02:05 12° SW 05:03:52 10° SSW visible
22 Jan 7.9 03:27:36 30° SSW 03:27:36 30° SSW 03:30:45 10° SSE visible
23 Jan 8.4 03:32:32 22° SSW 03:32:32 22° SSW 03:35:04 10° SSE visible
24 Jan 8.9 03:37:34 15° SSW 03:37:34 15° SSW 03:39:02 10° S visible
